Hebron, KY

12:03 AM EDT on August 29, 2016 (GMT -0400)
Cincinnati-Northern KY International

Weather History for KCVG - March, 2014

Change the Weather History Date:

Wednesday, March 26, 2014

  Actual Average Record
Temperature  
Mean Temperature 29 °F 47 °F  
Max Temperature 41 °F 57 °F 82 °F (1907)
Min Temperature 17 °F 37 °F 13 °F (1955)
Degree Days  
Heating Degree Days 36 18  
Month to date heating degree days 687 581  
Since 1 July heating degree days 4931 4408  
Cooling Degree Days 0 0  
Month to date cooling degree days 0 0  
Year to date cooling degree days 0 0  
Moisture  
Dew Point 11 °F    
Average Humidity 52    
Maximum Humidity 77    
Minimum Humidity 27    
Precipitation  
Precipitation T in 0.14 in 2.07 in (1904)
Month to date precipitation 1.30 3.26  
Year to date precipitation 6.84 9.07  
Snow  
Snow T in 0.00 in 1.00 in (1969)
Month to date snowfall 3.3 2.7  
Since 1 July snowfall 46.9 21.3  
Snow Depth 0.00 in    
Sea Level Pressure  
Sea Level Pressure 30.30 in    
Wind  
Wind Speed 5 mph (WSW)    
Max Wind Speed 14 mph    
Max Gust Speed 20 mph    
Visibility 10 miles    
Events      
T = Trace of Precipitation, MM = Missing Value Source: NWS Daily Summary

Daily Weather History Graph

Daily Weather History Graph

Search for Another Location

Airport or City:

Trip Planner

Search our weather history database for the weather conditions in past years. The results will help you decide how hot, cold, wet, or windy it might be!

Date:

Astronomy

Mar. 26, 2014 Rise Set
Actual Time 7:32 AM EDT 7:56 PM EDT
Civil Twilight 7:05 AM EDT 8:23 PM EDT
Nautical Twilight 6:34 AM EDT 8:54 PM EDT
Astronomical Twilight 6:02 AM EDT 9:27 PM EDT
Moon 4:38 AM EDT (3/26) 3:36 PM EDT (3/26)
Length of Visible Light 13h 17m
Length of Day
12h 23m
Waning Crescent, 22% of the Moon is Illuminated
Mar 26
Waning Crescent
Mar 30
New
Apr 7
First Quarter
Apr 15
Full
Apr 22
Last Quarter

Hourly Weather History & Observations

Time (EDT) Temp. Windchill Dew Point Humidity Pressure Visibility Wind Dir Wind Speed Gust Speed Precip Events Conditions
12:52 AM 24.1 °F 13.7 °F 14.0 °F 65% 30.22 in 10.0 mi NW 10.4 mph - N/A   Clear
1:52 AM 24.1 °F 13.7 °F 12.9 °F 62% 30.24 in 10.0 mi WNW 10.4 mph - N/A   Overcast
2:52 AM 24.1 °F 15.2 °F 12.0 °F 60% 30.25 in 10.0 mi NNW 8.1 mph - N/A   Overcast
3:52 AM 24.1 °F 15.2 °F 16.0 °F 71% 30.25 in 10.0 mi NNW 8.1 mph - 0.00 in   Overcast
4:52 AM 21.0 °F 13.4 °F 15.1 °F 78% 30.27 in 10.0 mi North 5.8 mph - N/A   Partly Cloudy
5:52 AM 21.0 °F 14.6 °F 12.0 °F 68% 30.29 in 10.0 mi NNE 4.6 mph - N/A   Clear
6:52 AM 21.9 °F 17.2 °F 10.0 °F 60% 30.30 in 10.0 mi North 3.5 mph - N/A   Clear
7:52 AM 18.0 °F - 10.9 °F 74% 30.33 in 8.0 mi Calm Calm - N/A   Clear
8:52 AM 23.0 °F - 12.9 °F 65% 30.36 in 10.0 mi Calm Calm - N/A   Clear
9:52 AM 27.0 °F - 10.0 °F 49% 30.38 in 10.0 mi Calm Calm - N/A   Partly Cloudy
10:52 AM 28.0 °F 22.8 °F 10.0 °F 47% 30.40 in 10.0 mi ENE 4.6 mph - N/A   Scattered Clouds
11:52 AM 30.0 °F - 9.0 °F 41% 30.39 in 10.0 mi Calm Calm - N/A   Partly Cloudy
12:52 PM 33.1 °F 27.7 °F 9.0 °F 37% 30.39 in 10.0 mi WNW 5.8 mph - N/A   Partly Cloudy
1:52 PM 35.1 °F 32.2 °F 8.1 °F 33% 30.35 in 10.0 mi Variable 3.5 mph - N/A   Clear
2:52 PM 37.0 °F 32.4 °F 8.1 °F 30% 30.33 in 10.0 mi WSW 5.8 mph - N/A   Clear
3:52 PM 39.0 °F 33.4 °F 9.0 °F 29% 30.29 in 10.0 mi East 8.1 mph - N/A   Partly Cloudy
4:52 PM 39.9 °F 34.5 °F 10.0 °F 29% 30.29 in 10.0 mi SW 8.1 mph - N/A   Partly Cloudy
5:52 PM 39.0 °F 33.4 °F 8.1 °F 28% 30.26 in 10.0 mi South 8.1 mph - N/A   Clear
6:52 PM 39.9 °F 34.5 °F 8.1 °F 27% 30.25 in 10.0 mi South 8.1 mph - N/A   Clear
7:52 PM 36.0 °F 31.1 °F 10.0 °F 34% 30.25 in 10.0 mi SSW 5.8 mph - N/A   Partly Cloudy
8:52 PM 36.0 °F 33.3 °F 10.0 °F 34% 30.26 in 10.0 mi SW 3.5 mph - N/A   Partly Cloudy
9:52 PM 30.9 °F 25.2 °F 14.0 °F 50% 30.26 in 10.0 mi South 5.8 mph - N/A   Partly Cloudy
10:52 PM 30.9 °F 25.2 °F 15.1 °F 52% 30.26 in 10.0 mi South 5.8 mph - N/A   Partly Cloudy
11:52 PM 30.0 °F 23.2 °F 15.1 °F 54% 30.26 in 10.0 mi South 6.9 mph - N/A   Scattered Clouds